Location: *
(28.3744°N, 81.5492°W)
Time: 14:04:45
(UTC+00:00)

USA 238 - Pass Details

Date: 15 June 2025
Orbit: 897 x 1314 km, 63.4° (Epoch: 11 June)

Event Time Altitude Azimuth Distance (km) Brightness Sun altitude
Rises 03:29:35 0° 326° (NW) 4,109 7.9 -31.1°
Reaches altitude 10° 03:32:18 10° 323° (NW) 3,191 7.0 -31.4°
Maximum altitude 03:39:55 59° 246° (WSW) 1,466 4.3 -32.3°
Enters shadow 03:40:34 57° 227° (SW) 1,490 4.2 -32.3°
